TimeEST,TemperatureF,Dew PointF,Humidity,Sea Level PressureIn,VisibilityMPH,Wind Direction,Wind SpeedMPH,Gust SpeedMPH,PrecipitationIn,Events,Conditions,WindDirDegrees,DateUTC
12:40 AM,42.8,39.2,87,30.00,10.0,North,13.8,21.9,N/A,,Overcast,350,2013-01-18 05:40:00
12:54 AM,43.0,37.9,82,30.04,10.0,NNW,17.3,21.9,N/A,,Overcast,330,2013-01-18 05:54:00
1:54 AM,42.1,37.9,85,30.12,10.0,NNW,10.4,19.6,0.01,Rain,Light Rain,340,2013-01-18 06:54:00
2:54 AM,39.0,36.0,89,30.13,10.0,North,11.5,20.7,0.00,,Mostly Cloudy,360,2013-01-18 07:54:00
3:54 AM,39.9,36.0,86,30.20,10.0,NNW,9.2,21.9,N/A,,Overcast,330,2013-01-18 08:54:00
4:54 AM,39.0,36.0,89,30.24,10.0,NNW,11.5,18.4,N/A,,Overcast,340,2013-01-18 09:54:00
5:54 AM,39.0,35.1,86,30.28,10.0,NNW,10.4,18.4,N/A,,Overcast,340,2013-01-18 10:54:00
6:30 AM,37.4,33.8,87,30.30,10.0,NNW,13.8,20.7,N/A,,Scattered Clouds,340,2013-01-18 11:30:00
6:54 AM,37.0,33.1,86,30.32,10.0,NNW,4.6,-,N/A,,Partly Cloudy,340,2013-01-18 11:54:00
7:54 AM,37.0,34.0,89,30.35,10.0,NW,6.9,-,N/A,,Clear,320,2013-01-18 12:54:00
8:54 AM,39.0,35.1,86,30.40,10.0,NW,8.1,-,N/A,,Clear,320,2013-01-18 13:54:00
9:54 AM,41.0,34.0,76,30.45,10.0,NW,10.4,-,N/A,,Partly Cloudy,320,2013-01-18 14:54:00
11:54 AM,46.0,32.0,58,30.43,10.0,North,11.5,-,N/A,,Clear,360,2013-01-18 16:54:00
12:54 PM,46.9,30.0,52,30.43,10.0,NNE,10.4,-,N/A,,Clear,20,2013-01-18 17:54:00
1:54 PM,48.0,30.0,50,30.44,10.0,North,9.2,-,N/A,,Clear,10,2013-01-18 18:54:00
2:54 PM,48.9,28.9,46,30.45,10.0,NNE,10.4,-,N/A,,Clear,30,2013-01-18 19:54:00
3:54 PM,48.0,26.1,42,30.46,10.0,North,11.5,-,N/A,,Clear,10,2013-01-18 20:54:00
4:54 PM,46.0,27.0,47,30.49,10.0,NNE,8.1,-,N/A,,Clear,20,2013-01-18 21:54:00
5:54 PM,42.1,28.0,58,30.51,10.0,ENE,4.6,-,N/A,,Clear,60,2013-01-18 22:54:00
6:54 PM,41.0,27.0,57,30.55,10.0,Calm,Calm,-,N/A,,Clear,0,2013-01-18 23:54:00
7:54 PM,39.0,28.0,65,30.55,10.0,ENE,4.6,-,N/A,,Clear,60,2013-01-19 00:54:00
8:54 PM,37.0,27.0,67,30.55,10.0,NNE,4.6,-,N/A,,Clear,30,2013-01-19 01:54:00
9:54 PM,37.0,27.0,67,30.54,10.0,ENE,6.9,-,N/A,,Clear,60,2013-01-19 02:54:00
10:54 PM,36.0,28.0,73,30.54,10.0,NE,4.6,-,N/A,,Clear,50,2013-01-19 03:54:00
11:54 PM,36.0,28.0,73,30.52,10.0,ENE,5.8,-,N/A,,Clear,70,2013-01-19 04:54:00